sat.trackr.live / text

‹ back to catalog

CONTINUUM-1

NORAD 55045 · 2023-001AN

PAYLOAD ACTIVE UNKNOWN

§ Identity

Operator
Country
AUS
Launch date
2023-01-03
Launch site
AFETR
Launch vehicle
Mass (kg)
RCS (m²)

External: N2YO · Heavens-Above · Gunter

§ Orbital elements

Epoch: 2026-09-21T22:03:30.044736Z

Period
93.91 min
Inclination
97.3269°
Eccentricity
0.0009911
Mean motion
15.33365003 rev/d
Perigee alt
459.0 km
Apogee alt
472.6 km
Semi-major
6,843.9 km
B*
2.6301e-4
RAAN
327.0066°
Arg perigee
102.3906°
Mean anomaly
257.8446°
Rev number
20,706

§ Raw data

CONTINUUM-11 55045U 23001AN  26264.91909774  .00008415  00000+0  26301-3 0  99932 55045  97.3269 327.0066 0009911 102.3906 257.8446 15.33365003207062

JSON: /api/v1/satellites/55045 · /tle

For live sub-satellite position, see the globe view (requires WebGL).

§ Visibility from observer

Set your observer location to see the next 7 days of passes ≥ 10°. The values pass through the URL so the page stays shareable.

No JS? Fill the form by hand. The geolocation button needs JavaScript.